Main page
METAR-TAF:

METAR-TAF

Airports :

Gonabad, Iran

latitude: 34-22-51N, longitude: 58-38-23E, elevation: 1100 m

Current weather observation

The report was made 16 minutes ago, at 17:00 UTC
Wind 10 kt from the East
Temperature 30°C
Humidity 24%
Pressure 1011 hPa
Visibility 10 km or more
Few clouds at a height of 4000 ft

METAR: OIMD 261700Z 09010KT 9999 FEW040 30/07 Q1011

Time: 21:46 (17:16 UTC)


TAF: missing

Weather observations and forecasts of more than 4000 airports (METAR and TAF reports).

The available stations are represented by yellow and red dots on the map.

Hover mouse over dot to see the name of the station.

Then click to see weather observations and forecasts.

To change the map : click on the green buttons with a black cross to zoom in, on the green button with a dash to zoom out, or on the green arrows for adjacent maps.


METAR-TAF: